Regional Weather Roundup
Issued by NWS Goodland, KS

Home | Current Version | Previous Version | Graphics & Text | Print | Product List | Glossary On
Versions: 1 2 3 4 5 6 7 8 9 10 11 12 13 14 15 16 17 18 19 20 21 22 23 24 25 26 27 28 29 30 31 32 33 34 35 36 37 38 39 40 41 42 43 44 45 46 47 48 49 50
987
ASUS43 KGLD 180859
RWRGLD

GOODLAND FORECAST AREA HOURLY WEATHER ROUNDUP
NATIONAL WEATHER SERVICE GOODLAND KS
200 AM MST WED JAN 18 2017

...OFFICIAL OBSERVATIONS...

CITY           SKY/WX    TMP DP  RH WIND       PRES   REMARKS
GOODLAND KS    CLEAR     29  27  92 SW7       30.00S
HILL CITY KS   CLEAR     35  30  82 SW8       30.07F
IMPERIAL NEB   CLOUDY    27  23  85 SW6       30.00S
MCCOOK NEB     CLOUDY    27  26  96 SW6       30.04S
AKRON CO       CLOUDY    27  19  72 W12       29.97F WCI  17
BURLINGTON CO  CLOUDY    27  25  92 SW7       30.00S
LIMON CO       CLOUDY    13  12  96 CALM      29.99F
$$

...UNOFFICIAL OBSERVATIONS...

CITY           SKY/WX    TMP DP  RH WIND       PRES   REMARKS
LENORA KS        N/A     31  32 100 SW6         N/A
NORTON KS      CLEAR     28  25  86 SW6       30.05S
SHARON SPRINGS   N/A     33  30  90 S12         N/A
TRENTON NEB      N/A     27  32 100 CALM        N/A
KIT CARSON CO    N/A     24  22  90 CALM        N/A
YUMA CO        FAIR      12   9  85 W10       29.98S WCI  -1
$$




USA.gov is the U.S. government's official web portal to all federal, state and local government web resources and services.